Location: Chaumontel
(49.1247°N, 2.4324°E)
Time: 01:00:17
(UTC+00:00)

IRIDIUM 103 - Pass Details

Date: 22 May 2025
Orbit: 775 x 779 km, 86.4° (Epoch: 12 June)

Event Time Altitude Azimuth Distance (km) Brightness Sun altitude
Exits shadow 02:35:24 - 257° (WSW) 2,490 6.5 -11.0°
Reaches altitude 10° 02:36:10 10° 264° (W) 2,334 6.4 -10.9°
Maximum altitude 02:38:46 14° 294° (WNW) 2,088 6.4 -10.7°
Drops below altitude 10° 02:41:22 10° 324° (NW) 2,341 7.0 -10.4°
Sets 02:45:01 0° 350° (N) 3,274 8.2 -10.0°
